Location: Rounton
(54.4000°N, 1.3500°W)
Time: 02:31:48
(UTC+00:00)

Transit 4A - Pass Details

Date: 30 November 2021
Orbit: 864 x 981 km, 66.8° (Epoch: 19 January)

Event Time Altitude Azimuth Distance (km) Brightness Sun altitude
Exits shadow 02:41:53 19° 82° (E) 2,136 10.2 -44.6°
Drops below altitude 10° 02:43:42 10° 92° (E) 2,699 10.8 -44.4°
Sets 02:46:31 0° 101° (E) 3,657 11.5 -44.0°
